Погода в Барри

Канада     44°22′10″N   79°41′14″W
темп.,
°C
ветер,
м/с
пор.,
м/с
влажн.,
%
обл.,
%
осадки,
мм/ч
давл.,
гПа
погр.,
м
8 августа, пн
пн823:00+22юз349177 1.3 101462
02:00+22ююз2291100 1.4 101325
05:00+21юз359691 0.3 1012115
08:00+22зюз3897100 1.6 1012604
11:00+24з478584 0.3 1012698
14:00+28зюз576391 0.6 10091400
17:00+29зюз7116682 1.0 10081530
20:00+24з71392100 5.4 1007865
9 августа, вт
вт923:00+18сз6109597 0.5 1011548
02:00+15сз71191100 0.6 1012645
05:00+14ссз61088100 0.0 1014755
08:00+14с5882100 0.0 1016779
11:00+16ссз4568100 0.0 1018904
14:00+21ссз445634 0.0 10181200
17:00+21ссз435764 0.0 10181071
20:00+17ссз347588 0.0 101883
10 августа, ср
ср1023:00+13сз229259 0.0 101915
02:00+12зюз1192100 0.0 101911
05:00+12сз119169 0.0 101911
08:00+15зюз118012 0.0 102092
11:00+22юз22555 0.0 1019874
14:00+27зсз23344 0.0 10171632
17:00+28ссз44350 0.0 10151531
20:00+21сз23600 0.0 101529
11 августа, чт
чт1123:00+17зсз33673 0.0 101544
02:00+16зсз411736 0.0 1015269
05:00+15зсз48830 0.0 1015210
08:00+16ссз59740 0.0 1017428
11:00+20ссз79470 0.0 10171472
14:00+21сз89460 0.0 10171424
17:00+20сз89540 0.0 10171143
20:00+17ссз510620 0.0 1018597
12 августа, пт
пт1223:00+12ссз22790 0.0 102024
02:00+11зсз11850 0.0 102011
05:00+10зсз22870 0.0 102112
08:00+14ссз24760 0.0 1022150
11:00+20ссз57370 0.0 10221367
14:00+23ссз67340 0.0 10211846
17:00+22ссз56350 0.0 10211390
20:00+16ссз35545 0.0 102173